| time (UTC) | temp C | wind direction | speed KPH | gust KPH | rain 1hr cm | rain 24hr cm | rain mn cm | humidity % | barometer mb |
| 20260510064036 | 12 | 24 | 12.9 | 22.5 | 0.00 | 0.00 | 0.00 | 71 | 1016.4 |
| 20260510063536 | 12 | 14 | 8.0 | 16.1 | 0.00 | 0.00 | 0.00 | 71 | 1016.4 |
| 20260510063035 | 12 | 347 | 8.0 | 25.7 | 0.00 | 0.00 | 0.00 | 71 | 1016.5 |
| 20260510062535 | 12 | 31 | 6.4 | 12.9 | 0.00 | 0.00 | 0.00 | 71 | 1016.5 |
| 20260510062035 | 12 | 35 | 3.2 | 9.7 | 0.00 | 0.00 | 0.00 | 71 | 1016.6 |
| 20260510061536 | 12 | 23 | 6.4 | 12.9 | 0.00 | 0.00 | 0.00 | 71 | 1016.6 |
| 20260510060535 | 11 | 19 | 3.2 | 12.9 | 0.00 | 0.00 | 0.00 | 71 | 1016.5 |
| 20260510060034 | 11 | 356 | 4.8 | 9.7 | 0.00 | 0.00 | 0.00 | 71 | 1016.5 |
| 20260510055535 | 11 | 31 | 12.9 | 25.7 | 0.00 | 0.00 | 0.00 | 71 | 1016.4 |
| 20260510055035 | 11 | 35 | 11.3 | 22.5 | 0.00 | 0.00 | 0.00 | 71 | 1016.5 |
| 20260510054535 | 11 | 100 | 1.6 | 12.9 | 0.00 | 0.00 | 0.00 | 71 | 1016.5 |
| 20260510054035 | 11 | 27 | 6.4 | 12.9 | 0.00 | 0.00 | 0.00 | 70 | 1016.5 |
| 20260510053535 | 11 | 29 | 4.8 | 22.5 | 0.00 | 0.00 | 0.00 | 70 | 1016.6 |
| 20260510053035 | 11 | 47 | 9.7 | 19.3 | 0.00 | 0.00 | 0.00 | 70 | 1016.6 |
| 20260510052535 | 11 | 46 | 11.3 | 19.3 | 0.00 | 0.00 | 0.00 | 70 | 1016.6 |
| 20260510052035 | 11 | 53 | 9.7 | 22.5 | 0.00 | 0.00 | 0.00 | 70 | 1016.5 |
| 20260510051035 | 11 | 19 | 11.3 | 25.7 | 0.00 | 0.00 | 0.00 | 70 | 1016.4 |
| 20260510050534 | 11 | 42 | 1.6 | 6.4 | 0.00 | 0.00 | 0.00 | 70 | 1016.4 |
| 20260510050035 | 11 | 32 | 4.8 | 9.7 | 0.00 | 0.00 | 0.00 | 70 | 1016.4 |
| 20260510045035 | 11 | 28 | 8.0 | 19.3 | 0.00 | 0.00 | 0.00 | 70 | 1016.4 |
| 20260510044535 | 11 | 23 | 3.2 | 9.7 | 0.00 | 0.00 | 0.00 | 70 | 1016.4 |
| 20260510044035 | 11 | 63 | 6.4 | 22.5 | 0.00 | 0.00 | 0.00 | 69 | 1016.4 |
| 20260510043535 | 11 | 2 | 4.8 | 16.1 | 0.00 | 0.00 | 0.00 | 69 | 1016.4 |
| 20260510043036 | 11 | 57 | 8.0 | 16.1 | 0.00 | 0.00 | 0.00 | 69 | 1016.4 |
| 20260510042535 | 11 | 24 | 6.4 | 12.9 | 0.00 | 0.00 | 0.00 | 69 | 1016.3 |
| 20260510042035 | 11 | 32 | 1.6 | 6.4 | 0.00 | 0.00 | 0.00 | 69 | 1016.3 |
| 20260510041535 | 11 | 36 | 6.4 | 19.3 | 0.00 | 0.00 | 0.00 | 69 | 1016.2 |
| 20260510041035 | 11 | 25 | 9.7 | 19.3 | 0.00 | 0.00 | 0.00 | 69 | 1016.2 |
| 20260510040535 | 11 | 73 | 8.0 | 16.1 | 0.00 | 0.00 | 0.00 | 68 | 1016.1 |
| 20260510040034 | 11 | 48 | 3.2 | 9.7 | 0.00 | 0.00 | 0.00 | 68 | 1016.2 |
| 20260510035538 | 11 | 36 | 6.4 | 12.9 | 0.00 | 0.00 | 0.00 | 68 | 1016.2 |
| 20260510035037 | 11 | 31 | 11.3 | 25.7 | 0.00 | 0.00 | 0.00 | 68 | 1016.2 |
| 20260510034534 | 11 | 45 | 8.0 | 16.1 | 0.00 | 0.00 | 0.00 | 68 | 1016.3 |
| 20260510034034 | 11 | 43 | 9.7 | 29.0 | 0.00 | 0.00 | 0.00 | 68 | 1016.4 |
| 20260510033534 | 11 | 28 | 4.8 | 9.7 | 0.00 | 0.00 | 0.00 | 68 | 1016.4 |
| 20260510033034 | 11 | 34 | 6.4 | 12.9 | 0.00 | 0.00 | 0.00 | 67 | 1016.5 |
| 20260510032534 | 11 | 36 | 8.0 | 12.9 | 0.00 | 0.00 | 0.00 | 67 | 1016.5 |
| 20260510032039 | 11 | 52 | 11.3 | 29.0 | 0.00 | 0.00 | 0.00 | 67 | 1016.6 |
| 20260510031537 | 11 | 15 | 3.2 | 9.7 | 0.00 | 0.00 | 0.00 | 67 | 1016.6 |
| 20260510031033 | 11 | 86 | 0.0 | 6.4 | 0.00 | 0.00 | 0.00 | 67 | 1016.5 |
| 20260510030535 | 11 | 34 | 4.8 | 9.7 | 0.00 | 0.00 | 0.00 | 66 | 1016.4 |
| 20260510025530 | 11 | 42 | 8.0 | 19.3 | 0.00 | 0.00 | 0.00 | 66 | 1016.4 |
| 20260510025037 | 11 | 50 | 6.4 | 12.9 | 0.00 | 0.00 | 0.00 | 66 | 1016.5 |
| 20260510024036 | 11 | 18 | 8.0 | 16.1 | 0.00 | 0.00 | 0.00 | 66 | 1016.5 |
| 20260510023035 | 12 | 53 | 6.4 | 9.7 | 0.00 | 0.00 | 0.00 | 65 | 1016.5 |
| 20260510022530 | 12 | 37 | 4.8 | 19.3 | 0.00 | 0.00 | 0.00 | 65 | 1016.5 |
| 20260510022045 | 12 | 25 | 14.5 | 25.7 | 0.00 | 0.00 | 0.00 | 65 | 1016.5 |
| 20260510021537 | 12 | 43 | 6.4 | 12.9 | 0.00 | 0.00 | 0.00 | 65 | 1016.5 |
| 20260510021034 | 12 | 48 | 8.0 | 12.9 | 0.00 | 0.00 | 0.00 | 65 | 1016.5 |
| 20260510020534 | 12 | 51 | 4.8 | 19.3 | 0.00 | 0.00 | 0.00 | 64 | 1016.5 |
| 20260510020033 | 12 | 18 | 12.9 | 19.3 | 0.00 | 0.00 | 0.00 | 64 | 1016.5 |
| 20260510015534 | 12 | 46 | 9.7 | 19.3 | 0.00 | 0.00 | 0.00 | 64 | 1016.5 |
| 20260510014533 | 12 | 84 | 6.4 | 16.1 | 0.00 | 0.00 | 0.00 | 64 | 1016.6 |
| 20260510014028 | 12 | 44 | 8.0 | 16.1 | 0.00 | 0.00 | 0.00 | 64 | 1016.8 |
| 20260510013034 | 12 | 3 | 1.6 | 6.4 | 0.00 | 0.00 | 0.00 | 63 | 1016.8 |
| 20260510012534 | 12 | 46 | 3.2 | 9.7 | 0.00 | 0.00 | 0.00 | 63 | 1016.8 |
| 20260510012033 | 12 | 32 | 8.0 | 19.3 | 0.00 | 0.00 | 0.00 | 63 | 1016.8 |
| 20260510011533 | 12 | 23 | 3.2 | 9.7 | 0.00 | 0.00 | 0.00 | 63 | 1016.8 |
| 20260510011033 | 12 | 16 | 8.0 | 22.5 | 0.00 | 0.00 | 0.00 | 63 | 1016.7 |
| 20260510010538 | 12 | 53 | 3.2 | 9.7 | 0.00 | 0.00 | 0.00 | 63 | 1016.8 |
| 20260510010033 | 12 | 342 | 3.2 | 9.7 | 0.00 | 0.00 | 0.00 | 62 | 1016.8 |
| 20260510005533 | 12 | 15 | 3.2 | 9.7 | 0.00 | 0.00 | 0.00 | 62 | 1016.8 |
| 20260510005034 | 12 | 28 | 8.0 | 16.1 | 0.00 | 0.00 | 0.00 | 62 | 1016.9 |
| 20260510004537 | 12 | 26 | 6.4 | 12.9 | 0.00 | 0.00 | 0.00 | 62 | 1016.9 |
| 20260510004033 | 12 | 43 | 6.4 | 9.7 | 0.00 | 0.00 | 0.00 | 62 | 1017.0 |
| 20260510003538 | 12 | 29 | 6.4 | 12.9 | 0.00 | 0.00 | 0.00 | 62 | 1017.0 |
| 20260510003034 | 12 | 38 | 9.7 | 19.3 | 0.00 | 0.00 | 0.00 | 62 | 1017.1 |
| 20260510002538 | 12 | 10 | 8.0 | 16.1 | 0.00 | 0.00 | 0.00 | 62 | 1017.1 |
| 20260510002029 | 11 | 26 | 4.8 | 9.7 | 0.00 | 0.00 | 0.00 | 61 | 1017.1 |
| 20260510001534 | 11 | 19 | 4.8 | 9.7 | 0.00 | 0.00 | 0.00 | 61 | 1017.0 |
| 20260510001037 | 11 | 26 | 4.8 | 16.1 | 0.00 | 0.00 | 0.00 | 61 | 1017.0 |
| 20260510000538 | 11 | 22 | 1.6 | 6.4 | 0.00 | 0.00 | 0.00 | 61 | 1017.1 |
| 20260510000033 | 11 | 21 | 0.0 | 0.0 | 0.00 | 0.00 | 0.00 | 61 | 1017.2 |
| 20260509235531 | 11 | 31 | 3.2 | 6.4 | 0.00 | 0.00 | 0.00 | 61 | 1017.2 |
| 20260509235038 | 11 | 38 | 4.8 | 9.7 | 0.00 | 0.00 | 0.00 | 61 | 1017.1 |
| 20260509234032 | 11 | 27 | 6.4 | 12.9 | 0.00 | 0.00 | 0.00 | 60 | 1017.1 |
| 20260509233539 | 11 | 37 | 9.7 | 12.9 | 0.00 | 0.00 | 0.00 | 60 | 1017.1 |
| 20260509233034 | 11 | 20 | 8.0 | 16.1 | 0.00 | 0.00 | 0.00 | 60 | 1017.2 |
| 20260509232529 | 11 | 34 | 4.8 | 6.4 | 0.00 | 0.00 | 0.00 | 60 | 1017.2 |
| 20260509232035 | 10 | 35 | 3.2 | 6.4 | 0.00 | 0.00 | 0.00 | 60 | 1017.3 |
| 20260509231530 | 11 | 25 | 4.8 | 9.7 | 0.00 | 0.00 | 0.00 | 59 | 1017.4 |
| 20260509230539 | 11 | 34 | 3.2 | 6.4 | 0.00 | 0.00 | 0.00 | 59 | 1017.4 |
| 20260509230035 | 11 | 30 | 3.2 | 9.7 | 0.00 | 0.00 | 0.00 | 59 | 1017.4 |
| 20260509225532 | 11 | 28 | 6.4 | 12.9 | 0.00 | 0.00 | 0.00 | 59 | 1017.4 |
| 20260509225040 | 11 | 3 | 3.2 | 6.4 | 0.00 | 0.00 | 0.00 | 59 | 1017.5 |
| 20260509224538 | 11 | 22 | 6.4 | 9.7 | 0.00 | 0.00 | 0.00 | 58 | 1017.6 |
| 20260509223540 | 11 | 9 | 4.8 | 6.4 | 0.00 | 0.00 | 0.00 | 58 | 1017.6 |
| 20260509223038 | 11 | 30 | 1.6 | 6.4 | 0.00 | 0.00 | 0.00 | 58 | 1017.6 |
| 20260509222531 | 11 | 19 | 4.8 | 9.7 | 0.00 | 0.00 | 0.00 | 58 | 1017.5 |
| 20260509222039 | 11 | 20 | 6.4 | 9.7 | 0.00 | 0.00 | 0.00 | 58 | 1017.6 |
| 20260509221529 | 11 | 11 | 3.2 | 6.4 | 0.00 | 0.00 | 0.00 | 58 | 1017.5 |
| 20260509221034 | 11 | 10 | 4.8 | 6.4 | 0.00 | 0.00 | 0.00 | 57 | 1017.5 |
| 20260509220531 | 11 | 11 | 3.2 | 6.4 | 0.00 | 0.00 | 0.00 | 57 | 1017.4 |
| 20260509220029 | 12 | 11 | 4.8 | 6.4 | 0.00 | 0.00 | 0.00 | 57 | 1017.4 |
| 20260509215535 | 12 | 18 | 4.8 | 6.4 | 0.00 | 0.00 | 0.00 | 57 | 1017.3 |
| 20260509215035 | 12 | 18 | 0.0 | 0.0 | 0.00 | 0.00 | 0.00 | 57 | 1017.4 |
| 20260509214528 | 12 | 18 | 1.6 | 3.2 | 0.00 | 0.00 | 0.00 | 57 | 1017.4 |
| 20260509214036 | 12 | 18 | 3.2 | 6.4 | 0.00 | 0.00 | 0.00 | 57 | 1017.3 |
| 20260509213038 | 12 | 14 | 4.8 | 9.7 | 0.00 | 0.00 | 0.00 | 56 | 1017.4 |
| 20260509212535 | 12 | 9 | 0.0 | 6.4 | 0.00 | 0.00 | 0.00 | 56 | 1017.4 |
| 20260509212035 | 13 | 23 | 6.4 | 12.9 | 0.00 | 0.00 | 0.00 | 56 | 1017.2 |
| 20260509211535 | 13 | 17 | 8.0 | 12.9 | 0.00 | 0.00 | 0.00 | 56 | 1017.2 |
| 20260509211035 | 13 | 28 | 6.4 | 12.9 | 0.00 | 0.00 | 0.00 | 56 | 1017.2 |
| 20260509210535 | 13 | 28 | 6.4 | 9.7 | 0.00 | 0.00 | 0.00 | 56 | 1017.2 |
| 20260509210035 | 13 | 28 | 3.2 | 6.4 | 0.00 | 0.00 | 0.00 | 56 | 1017.2 |
| 20260509205036 | 13 | 18 | 4.8 | 9.7 | 0.00 | 0.00 | 0.00 | 56 | 1017.2 |
| 20260509204036 | 13 | 21 | 6.4 | 9.7 | 0.00 | 0.00 | 0.00 | 55 | 1017.2 |
| 20260509203535 | 13 | 21 | 8.0 | 12.9 | 0.00 | 0.00 | 0.00 | 55 | 1017.3 |
| 20260509203035 | 14 | 19 | 6.4 | 12.9 | 0.00 | 0.00 | 0.00 | 55 | 1017.3 |
| 20260509202535 | 14 | 24 | 4.8 | 9.7 | 0.00 | 0.00 | 0.00 | 55 | 1017.3 |
| 20260509201535 | 14 | 21 | 4.8 | 12.9 | 0.00 | 0.00 | 0.00 | 55 | 1017.2 |
| 20260509201035 | 14 | 10 | 8.0 | 12.9 | 0.00 | 0.00 | 0.00 | 55 | 1017.2 |
| 20260509200536 | 15 | 9 | 8.0 | 12.9 | 0.00 | 0.00 | 0.00 | 54 | 1017.2 |
| 20260509200035 | 15 | 13 | 9.7 | 12.9 | 0.00 | 0.00 | 0.00 | 54 | 1017.2 |
| 20260509195535 | 15 | 11 | 8.0 | 12.9 | 0.00 | 0.00 | 0.00 | 54 | 1017.3 |
| 20260509195036 | 15 | 10 | 8.0 | 12.9 | 0.00 | 0.00 | 0.00 | 54 | 1017.2 |
| 20260509194536 | 15 | 27 | 8.0 | 16.1 | 0.00 | 0.00 | 0.00 | 54 | 1017.1 |
| 20260509194029 | 15 | 16 | 11.3 | 16.1 | 0.00 | 0.00 | 0.00 | 54 | 1017.1 |
| 20260509193535 | 16 | 23 | 14.5 | 19.3 | 0.00 | 0.00 | 0.00 | 54 | 1017.0 |
| 20260509193035 | 16 | 22 | 11.3 | 16.1 | 0.00 | 0.00 | 0.00 | 54 | 1017.0 |
| 20260509192536 | 16 | 28 | 12.9 | 19.3 | 0.00 | 0.00 | 0.00 | 53 | 1017.0 |
| 20260509192035 | 16 | 24 | 12.9 | 19.3 | 0.00 | 0.00 | 0.00 | 53 | 1016.9 |
| 20260509191535 | 16 | 30 | 9.7 | 12.9 | 0.00 | 0.00 | 0.00 | 53 | 1016.9 |
| 20260509190535 | 16 | 15 | 12.9 | 19.3 | 0.00 | 0.00 | 0.00 | 53 | 1016.9 |
| 20260509190035 | 17 | 31 | 20.9 | 29.0 | 0.00 | 0.00 | 0.00 | 53 | 1017.0 |
| 20260509185035 | 17 | 29 | 20.9 | 25.7 | 0.00 | 0.00 | 0.00 | 53 | 1017.0 |
| 20260509184535 | 17 | 15 | 14.5 | 22.5 | 0.00 | 0.00 | 0.00 | 53 | 1016.7 |
| 20260509184035 | 17 | 30 | 11.3 | 19.3 | 0.00 | 0.00 | 0.00 | 53 | 1016.7 |
| 20260509183536 | 17 | 21 | 16.1 | 25.7 | 0.00 | 0.00 | 0.00 | 52 | 1016.7 |
| 20260509183035 | 18 | 20 | 16.1 | 25.7 | 0.00 | 0.00 | 0.00 | 52 | 1016.8 |
| 20260509182536 | 18 | 33 | 20.9 | 29.0 | 0.00 | 0.00 | 0.00 | 52 | 1016.8 |
| 20260509182029 | 18 | 26 | 17.7 | 29.0 | 0.00 | 0.00 | 0.00 | 52 | 1016.7 |
| 20260509181535 | 18 | 14 | 14.5 | 25.7 | 0.00 | 0.00 | 0.00 | 52 | 1016.8 |
| 20260509181035 | 18 | 22 | 16.1 | 22.5 | 0.00 | 0.00 | 0.00 | 52 | 1016.8 |
| 20260509180035 | 19 | 24 | 12.9 | 22.5 | 0.00 | 0.00 | 0.00 | 52 | 1016.8 |
| 20260509175535 | 20 | 12 | 20.9 | 32.2 | 0.00 | 0.00 | 0.00 | 52 | 1016.7 |
| 20260509174535 | 20 | 17 | 16.1 | 22.5 | 0.00 | 0.00 | 0.00 | 52 | 1016.8 |
| 20260509174035 | 20 | 9 | 12.9 | 19.3 | 0.00 | 0.00 | 0.00 | 52 | 1016.7 |
| 20260509173531 | 20 | 5 | 14.5 | 19.3 | 0.00 | 0.00 | 0.00 | 52 | 1016.6 |
| 20260509173035 | 20 | 29 | 17.7 | 25.7 | 0.00 | 0.00 | 0.00 | 52 | 1016.6 |
| 20260509172535 | 20 | 28 | 20.9 | 29.0 | 0.00 | 0.00 | 0.00 | 52 | 1016.5 |
| 20260509172035 | 20 | 22 | 20.9 | 29.0 | 0.00 | 0.00 | 0.00 | 52 | 1016.5 |
| 20260509171535 | 21 | 21 | 16.1 | 22.5 | 0.00 | 0.00 | 0.00 | 52 | 1016.5 |
| 20260509171035 | 21 | 32 | 16.1 | 22.5 | 0.00 | 0.00 | 0.00 | 52 | 1016.5 |
| 20260509170536 | 21 | 7 | 19.3 | 32.2 | 0.00 | 0.00 | 0.00 | 52 | 1016.5 |
| 20260509170036 | 21 | 28 | 14.5 | 22.5 | 0.00 | 0.00 | 0.00 | 52 | 1016.3 |
| 20260509165537 | 21 | 38 | 9.7 | 16.1 | 0.00 | 0.00 | 0.00 | 52 | 1016.4 |
| 20260509165037 | 21 | 9 | 3.2 | 6.4 | 0.00 | 0.00 | 0.00 | 52 | 1016.5 |
| 20260509164537 | 21 | 39 | 3.2 | 9.7 | 0.00 | 0.00 | 0.00 | 53 | 1016.6 |
| 20260509164036 | 21 | 21 | 3.2 | 6.4 | 0.00 | 0.00 | 0.00 | 53 | 1016.7 |
| 20260509163537 | 21 | 275 | 1.6 | 6.4 | 0.00 | 0.00 | 0.00 | 53 | 1016.8 |
| 20260509163036 | 22 | 89 | 6.4 | 16.1 | 0.00 | 0.00 | 0.00 | 53 | 1016.7 |
| 20260509162536 | 22 | 17 | 1.6 | 6.4 | 0.00 | 0.00 | 0.00 | 53 | 1016.8 |
| 20260509162036 | 23 | 98 | 4.8 | 9.7 | 0.00 | 0.00 | 0.00 | 53 | 1016.8 |
| 20260509161036 | 23 | 112 | 4.8 | 9.7 | 0.00 | 0.00 | 0.00 | 53 | 1016.9 |
| 20260509160540 | 23 | 319 | 0.0 | 3.2 | 0.00 | 0.00 | 0.00 | 53 | 1016.9 |
| 20260509160036 | 23 | 44 | 3.2 | 9.7 | 0.00 | 0.00 | 0.00 | 54 | 1016.8 |
| 20260509155536 | 23 | 130 | 8.0 | 16.1 | 0.00 | 0.00 | 0.00 | 54 | 1016.8 |
| 20260509154536 | 23 | 80 | 3.2 | 12.9 | 0.00 | 0.00 | 0.00 | 54 | 1016.8 |
| 20260509154037 | 24 | 296 | 3.2 | 9.7 | 0.00 | 0.00 | 0.00 | 54 | 1016.8 |
| 20260509153536 | 23 | 42 | 4.8 | 12.9 | 0.00 | 0.00 | 0.00 | 55 | 1016.8 |
| 20260509153036 | 23 | 40 | 4.8 | 16.1 | 0.00 | 0.00 | 0.00 | 55 | 1016.8 |
| 20260509152537 | 24 | 33 | 3.2 | 9.7 | 0.00 | 0.00 | 0.00 | 55 | 1016.7 |
| 20260509152037 | 23 | 122 | 6.4 | 16.1 | 0.00 | 0.00 | 0.00 | 55 | 1016.7 |
| 20260509151537 | 23 | 106 | 8.0 | 19.3 | 0.00 | 0.00 | 0.00 | 55 | 1016.8 |
| 20260509151037 | 23 | 14 | 11.3 | 16.1 | 0.00 | 0.00 | 0.00 | 56 | 1016.8 |
| 20260509150037 | 24 | 113 | 6.4 | 16.1 | 0.00 | 0.00 | 0.00 | 56 | 1016.8 |
| 20260509145530 | 24 | 129 | 1.6 | 6.4 | 0.00 | 0.00 | 0.00 | 56 | 1016.9 |
| 20260509145037 | 23 | 357 | 4.8 | 16.1 | 0.00 | 0.00 | 0.00 | 57 | 1016.8 |
| 20260509144536 | 23 | 123 | 14.5 | 19.3 | 0.00 | 0.00 | 0.00 | 57 | 1016.9 |
| 20260509144036 | 23 | 276 | 3.2 | 6.4 | 0.00 | 0.00 | 0.00 | 57 | 1016.9 |
| 20260509143536 | 22 | 119 | 12.9 | 19.3 | 0.00 | 0.00 | 0.00 | 57 | 1016.9 |
| 20260509142537 | 22 | 40 | 9.7 | 16.1 | 0.00 | 0.00 | 0.00 | 58 | 1017.2 |
| 20260509142037 | 22 | 305 | 3.2 | 6.4 | 0.00 | 0.00 | 0.00 | 58 | 1017.2 |
| 20260509141537 | 22 | 35 | 3.2 | 6.4 | 0.00 | 0.00 | 0.00 | 58 | 1017.3 |
| 20260509141036 | 23 | 50 | 12.9 | 19.3 | 0.00 | 0.00 | 0.00 | 58 | 1017.2 |
| 20260509140537 | 23 | 142 | 8.0 | 16.1 | 0.00 | 0.00 | 0.00 | 58 | 1017.3 |
| 20260509140036 | 24 | 307 | 3.2 | 9.7 | 0.00 | 0.00 | 0.00 | 59 | 1017.3 |
| 20260509135530 | 24 | 129 | 4.8 | 9.7 | 0.00 | 0.00 | 0.00 | 59 | 1017.3 |
| 20260509135037 | 24 | 149 | 1.6 | 6.4 | 0.00 | 0.00 | 0.00 | 59 | 1017.3 |
| 20260509134537 | 23 | 284 | 6.4 | 9.7 | 0.00 | 0.00 | 0.00 | 59 | 1017.3 |
| 20260509134030 | 23 | 79 | 4.8 | 9.7 | 0.00 | 0.00 | 0.00 | 59 | 1017.3 |
| 20260509133536 | 23 | 99 | 6.4 | 9.7 | 0.00 | 0.00 | 0.00 | 60 | 1017.3 |
| 20260509133036 | 23 | 132 | 9.7 | 19.3 | 0.00 | 0.00 | 0.00 | 60 | 1017.3 |
| 20260509132530 | 23 | 88 | 8.0 | 16.1 | 0.00 | 0.00 | 0.00 | 60 | 1017.3 |
| 20260509132037 | 23 | 137 | 16.1 | 22.5 | 0.00 | 0.00 | 0.00 | 60 | 1017.3 |
| 20260509131536 | 22 | 337 | 4.8 | 9.7 | 0.00 | 0.00 | 0.00 | 61 | 1017.4 |
| 20260509131030 | 22 | 101 | 6.4 | 9.7 | 0.00 | 0.00 | 0.00 | 61 | 1017.5 |
| 20260509130537 | 22 | 115 | 9.7 | 19.3 | 0.00 | 0.00 | 0.00 | 61 | 1017.6 |
| 20260509130037 | 22 | 149 | 9.7 | 16.1 | 0.00 | 0.00 | 0.00 | 61 | 1017.7 |
| 20260509125037 | 23 | 45 | 0.0 | 3.2 | 0.00 | 0.00 | 0.00 | 62 | 1017.8 |
| 20260509124536 | 22 | 358 | 6.4 | 12.9 | 0.00 | 0.00 | 0.00 | 62 | 1017.9 |
| 20260509124035 | 23 | 17 | 3.2 | 9.7 | 0.00 | 0.00 | 0.00 | 62 | 1017.8 |
| 20260509123536 | 23 | 133 | 6.4 | 12.9 | 0.00 | 0.00 | 0.00 | 62 | 1017.8 |
| 20260509123036 | 22 | 20 | 6.4 | 12.9 | 0.00 | 0.00 | 0.00 | 62 | 1017.9 |
| 20260509122531 | 22 | 217 | 6.4 | 9.7 | 0.00 | 0.00 | 0.00 | 63 | 1018.0 |
| 20260509122037 | 22 | 152 | 3.2 | 6.4 | 0.00 | 0.00 | 0.00 | 63 | 1018.0 |
| 20260509121536 | 23 | 33 | 1.6 | 6.4 | 0.00 | 0.00 | 0.00 | 63 | 1018.0 |
| 20260509121036 | 22 | 122 | 3.2 | 9.7 | 0.00 | 0.00 | 0.00 | 63 | 1018.2 |
| 20260509120537 | 22 | 196 | 0.0 | 6.4 | 0.00 | 0.00 | 0.00 | 64 | 1018.3 |
| 20260509120036 | 23 | 38 | 1.6 | 6.4 | 0.00 | 0.00 | 0.00 | 64 | 1018.3 |
| 20260509115536 | 22 | 281 | 3.2 | 6.4 | 0.00 | 0.00 | 0.00 | 64 | 1018.3 |
| 20260509115037 | 22 | 38 | 4.8 | 9.7 | 0.00 | 0.00 | 0.00 | 64 | 1018.4 |
| 20260509114536 | 21 | 58 | 1.6 | 12.9 | 0.00 | 0.00 | 0.00 | 65 | 1018.4 |
| 20260509114035 | 21 | 31 | 3.2 | 12.9 | 0.00 | 0.00 | 0.00 | 65 | 1018.5 |
| 20260509113536 | 22 | 109 | 6.4 | 16.1 | 0.00 | 0.00 | 0.00 | 65 | 1018.5 |
| 20260509113035 | 22 | 269 | 1.6 | 6.4 | 0.00 | 0.00 | 0.00 | 65 | 1018.6 |
| 20260509112536 | 22 | 129 | 11.3 | 22.5 | 0.00 | 0.00 | 0.00 | 66 | 1018.6 |
| 20260509111536 | 22 | 317 | 3.2 | 9.7 | 0.00 | 0.00 | 0.00 | 66 | 1018.7 |
| 20260509111036 | 22 | 154 | 3.2 | 6.4 | 0.00 | 0.00 | 0.00 | 66 | 1018.8 |
| 20260509110035 | 22 | 109 | 8.0 | 16.1 | 0.00 | 0.00 | 0.00 | 67 | 1018.8 |
| 20260509105535 | 21 | 121 | 9.7 | 19.3 | 0.00 | 0.00 | 0.00 | 67 | 1018.9 |
| 20260509105035 | 22 | 136 | 11.3 | 19.3 | 0.00 | 0.00 | 0.00 | 67 | 1018.9 |
| 20260509104535 | 21 | 111 | 6.4 | 12.9 | 0.00 | 0.00 | 0.00 | 68 | 1019.0 |
| 20260509104035 | 22 | 279 | 4.8 | 12.9 | 0.00 | 0.00 | 0.00 | 68 | 1018.9 |
| 20260509103536 | 21 | 109 | 8.0 | 19.3 | 0.00 | 0.00 | 0.00 | 68 | 1019.0 |
| 20260509103039 | 21 | 111 | 3.2 | 16.1 | 0.00 | 0.00 | 0.00 | 68 | 1019.0 |
| 20260509102536 | 21 | 68 | 6.4 | 16.1 | 0.00 | 0.00 | 0.00 | 68 | 1019.0 |
| 20260509102035 | 21 | 255 | 4.8 | 9.7 | 0.00 | 0.00 | 0.00 | 69 | 1019.0 |
| 20260509101536 | 21 | 330 | 1.6 | 6.4 | 0.00 | 0.00 | 0.00 | 69 | 1019.1 |
| 20260509101036 | 21 | 300 | 6.4 | 16.1 | 0.00 | 0.00 | 0.00 | 69 | 1019.2 |
| 20260509100536 | 21 | 108 | 9.7 | 22.5 | 0.00 | 0.00 | 0.00 | 69 | 1019.1 |
| 20260509095035 | 21 | 34 | 12.9 | 22.5 | 0.00 | 0.00 | 0.00 | 70 | 1019.1 |
| 20260509094535 | 20 | 78 | 8.0 | 16.1 | 0.00 | 0.00 | 0.00 | 70 | 1019.1 |
| 20260509094035 | 20 | 44 | 12.9 | 19.3 | 0.00 | 0.00 | 0.00 | 70 | 1019.0 |
| 20260509093536 | 20 | 306 | 0.0 | 3.2 | 0.00 | 0.00 | 0.00 | 71 | 1019.0 |
| 20260509093044 | 20 | 107 | 4.8 | 12.9 | 0.00 | 0.00 | 0.00 | 71 | 1019.0 |
| 20260509092535 | 20 | 314 | 1.6 | 6.4 | 0.00 | 0.00 | 0.00 | 71 | 1018.9 |
| 20260509092035 | 20 | 203 | 3.2 | 6.4 | 0.00 | 0.00 | 0.00 | 71 | 1019.2 |
| 20260509091529 | 19 | 143 | 8.0 | 16.1 | 0.00 | 0.00 | 0.00 | 71 | 1019.3 |
| 20260509090536 | 19 | 128 | 12.9 | 22.5 | 0.00 | 0.00 | 0.00 | 72 | 1019.3 |
| 20260509090030 | 20 | 144 | 3.2 | 6.4 | 0.00 | 0.00 | 0.00 | 72 | 1019.3 |
| 20260509085536 | 19 | 131 | 4.8 | 16.1 | 0.00 | 0.00 | 0.00 | 72 | 1019.2 |
| 20260509085036 | 19 | 156 | 4.8 | 9.7 | 0.00 | 0.00 | 0.00 | 73 | 1019.3 |
| 20260509084528 | 18 | 119 | 11.3 | 22.5 | 0.00 | 0.00 | 0.00 | 73 | 1019.4 |
| 20260509084036 | 18 | 135 | 8.0 | 22.5 | 0.00 | 0.00 | 0.00 | 73 | 1019.3 |
| 20260509083535 | 18 | 112 | 9.7 | 22.5 | 0.00 | 0.00 | 0.00 | 73 | 1019.3 |
| 20260509083029 | 18 | 127 | 12.9 | 22.5 | 0.00 | 0.00 | 0.00 | 74 | 1019.3 |
| 20260509082536 | 18 | 132 | 9.7 | 22.5 | 0.00 | 0.00 | 0.00 | 74 | 1019.4 |
| 20260509082036 | 18 | 126 | 3.2 | 12.9 | 0.00 | 0.00 | 0.00 | 74 | 1019.4 |
| 20260509081536 | 18 | 260 | 6.4 | 12.9 | 0.00 | 0.00 | 0.00 | 74 | 1019.4 |
| 20260509081035 | 18 | 263 | 1.6 | 6.4 | 0.00 | 0.00 | 0.00 | 74 | 1019.5 |
| 20260509080536 | 17 | 94 | 6.4 | 12.9 | 0.00 | 0.00 | 0.00 | 75 | 1019.4 |
| 20260509075535 | 17 | 198 | 3.2 | 6.4 | 0.00 | 0.00 | 0.00 | 75 | 1019.4 |
| 20260509074536 | 17 | 93 | 4.8 | 12.9 | 0.00 | 0.00 | 0.00 | 75 | 1019.5 |
| 20260509073535 | 16 | 211 | 1.6 | 3.2 | 0.00 | 0.00 | 0.00 | 76 | 1019.4 |
| 20260509073035 | 16 | 138 | 1.6 | 9.7 | 0.00 | 0.00 | 0.00 | 76 | 1019.3 |
| 20260509072534 | 16 | 345 | 1.6 | 6.4 | 0.00 | 0.00 | 0.00 | 76 | 1019.4 |
| 20260509072035 | 16 | 128 | 4.8 | 12.9 | 0.00 | 0.00 | 0.00 | 76 | 1019.4 |
| 20260509071535 | 15 | 68 | 4.8 | 12.9 | 0.00 | 0.00 | 0.00 | 76 | 1019.5 |
| 20260509071035 | 15 | 99 | 0.0 | 6.4 | 0.00 | 0.00 | 0.00 | 77 | 1019.4 |
| 20260509070535 | 15 | 110 | 4.8 | 9.7 | 0.00 | 0.00 | 0.00 | 77 | 1019.5 |
| 20260509070035 | 15 | 174 | 0.0 | 3.2 | 0.00 | 0.00 | 0.00 | 77 | 1019.4 |
| 20260509065035 | 13 | 156 | 1.6 | 6.4 | 0.00 | 0.00 | 0.00 | 77 | 1019.4 |
| 20260509064535 | 13 | 105 | 4.8 | 12.9 | 0.00 | 0.00 | 0.00 | 77 | 1019.3 |